Weather Roundup
Issued by NWS Springfield, MO

Home | Current Version | Previous Version | Text Only | Print | Product List | Glossary On
Versions: 1 2 3 4 5 6 7 8 9 10 11 12 13 14 15 16 17 18 19 20 21 22 23 24 25 26 27 28 29 30 31 32 33 34 35 36 37 38 39 40 41 42 43 44 45 46 47 48 49 50
000
NZUS99 KSGF 250057
HRRSGF

HOURLY WEATHER
NATIONAL WEATHER SERVICE SPRINGFIELD MO
700 PM CST FRI FEB 24 2017

......SGF CWA......

CITY           SKY/WX    TMP DP  RH WIND       PRES   REMARKS
SPRINGFIELD    CLOUDY    38  25  59 W20G30    29.88R WCI  28
JOPLIN         CLOUDY    36  22  56 NW17G29   29.97R WCI  26
WEST PLAINS    CLEAR     46  28  49 W10G25    29.80R
ROLLA          CLOUDY    42  27  55 W14G29    29.76R
BRANSON        PTCLDY    45  25  45 W14G24    29.86R

......SURROUNDING SGF CWA......

CITY           SKY/WX    TMP DP  RH WIND       PRES   REMARKS
CHANUTE        CLOUDY    33  20  58 NW22      30.01R WCI  21
PARSONS        CLOUDY    33  19  56 NW20G29   30.03R WCI  21
COFFEYVILLE    MOCLDY    34  20  56 NW18G31   30.03R WCI  23
EMPORIA        CLOUDY    29  21  72 NW16G25   30.02R WCI  17
HARRISON AR    CLEAR     45  26  47 W10       29.85R

......KANSAS AND MISSOURI......

CITY           SKY/WX    TMP DP  RH WIND       PRES   REMARKS
KANSAS CTY INT CLOUDY    28  20  71 NW20G28   29.94R WCI  15
SEDALIA        CLOUDY    34  22  61 W22G32    29.88R WCI  22
ST JOSEPH      LGT SNOW  26  23  88 NW16      29.96R FOG     WCI  14
ST LOUIS       PTCLDY    47  30  51 W16G22    29.72R
WICHITA        PTCLDY    32  19  58 N18G31    30.05R WCI  20
TOPEKA         LGT SNOW  27  24  89 NW12G22   30.01R FOG     WCI  17
OLATHE         CLOUDY    28  20  71 NW16G28   29.95R WCI  16

......TENNESSEE......

CITY           SKY/WX    TMP DP  RH WIND       PRES   REMARKS
MEMPHIS        NOT AVBL
NASHVILLE      MOCLDY    74  50  42 NW13G20   29.67R

......ARKANSAS.......

CITY           SKY/WX    TMP DP  RH WIND       PRES   REMARKS
FAYETTEVILLE   CLEAR     41  26  55 NW17G23   29.91R
FT SMITH       CLEAR     50  24  36 NW15G22   29.92R
LITTLE ROCK    PTCLDY    57  37  47 W17G23    29.81R

......OKLAHOMA.......

CITY           SKY/WX    TMP DP  RH WIND       PRES   REMARKS
TULSA          PTCLDY    40  23  50 NW14      30.02R WCI  32
PONCA CITY     CLEAR     35  21  56 N12       30.06R WCI  27
MCALESTER      PTCLDY    49  26  41 N13       29.98R
OKLAHOMA CITY  PTCLDY    43  22  43 N24G32    30.03R

......IOWA............

CITY           SKY/WX    TMP DP  RH WIND       PRES   REMARKS
DES MOINES     LGT SNOW  25  20  81 N21G30    29.84R WCI  11
QUAD CITIES    CLOUDY    36  32  85 NW8       29.64R FOG     WCI  30

......ILLINOIS........

CITY           SKY/WX    TMP DP  RH WIND       PRES   REMARKS
QUINCY         NOT AVBL
CHICAGO        DRIZZLE   39  36  89 W9        29.53S FOG     WCI  33



USA.gov is the U.S. government's official web portal to all federal, state and local government web resources and services.